| time (UTC) | temp F | wind direction | speed MPH | gust MPH | rain 1hr in | rain 24hr in | rain mn in | humidity % | barometer mb |
| 20260510203045 | 64 | 94 | 11.0 | 20.0 | 0.00 | 0.00 | 0.00 | 48 | 1007.3 |
| 20260510201542 | 66 | 95 | 14.0 | 23.0 | 0.00 | 0.00 | 0.00 | 35 | 1006.9 |
| 20260510200047 | 70 | 93 | 12.0 | 22.0 | 0.00 | 0.00 | 0.00 | 28 | 1006.6 |
| 20260510194542 | 76 | 151 | 11.0 | 23.0 | 0.00 | 0.00 | 0.00 | 24 | 1006.3 |
| 20260510193039 | 74 | 105 | 7.0 | 13.0 | 0.00 | 0.00 | 0.00 | 22 | 1006.1 |
| 20260510191538 | 74 | 128 | 7.0 | 16.0 | 0.00 | 0.00 | 0.00 | 22 | 1006.3 |
| 20260510190049 | 74 | 114 | 6.0 | 16.0 | 0.00 | 0.00 | 0.00 | 22 | 1006.6 |
| 20260510184533 | 72 | 171 | 6.0 | 15.0 | 0.00 | 0.00 | 0.00 | 25 | 1006.5 |
| 20260510183032 | 73 | 223 | 6.0 | 13.0 | 0.00 | 0.00 | 0.00 | 24 | 1006.6 |
| 20260510181530 | 73 | 207 | 7.0 | 15.0 | 0.00 | 0.00 | 0.00 | 24 | 1006.6 |
| 20260510180028 | 73 | 174 | 6.0 | 13.0 | 0.00 | 0.00 | 0.00 | 24 | 1006.8 |
| 20260510174525 | 72 | 158 | 7.0 | 15.0 | 0.00 | 0.00 | 0.00 | 25 | 1006.9 |
| 20260510173023 | 70 | 157 | 5.0 | 16.0 | 0.00 | 0.00 | 0.00 | 27 | 1007.0 |
| 20260510171525 | 69 | 204 | 6.0 | 15.0 | 0.00 | 0.00 | 0.00 | 28 | 1007.1 |
| 20260510170015 | 69 | 94 | 8.0 | 14.0 | 0.00 | 0.00 | 0.00 | 30 | 1007.0 |
| 20260510164511 | 68 | 123 | 5.0 | 13.0 | 0.00 | 0.00 | 0.00 | 30 | 1007.0 |
| 20260510163008 | 67 | 98 | 5.0 | 13.0 | 0.00 | 0.00 | 0.00 | 33 | 1006.9 |
| 20260510161503 | 66 | 149 | 7.0 | 15.0 | 0.00 | 0.00 | 0.00 | 34 | 1006.9 |
| 20260510160059 | 65 | 56 | 7.0 | 19.0 | 0.00 | 0.00 | 0.00 | 35 | 1006.9 |
| 20260510154600 | 66 | 135 | 8.0 | 18.0 | 0.00 | 0.00 | 0.00 | 32 | 1006.7 |
| 20260510153056 | 67 | 142 | 12.0 | 19.0 | 0.00 | 0.00 | 0.00 | 31 | 1006.5 |
| 20260510151547 | 67 | 176 | 5.0 | 16.0 | 0.00 | 0.00 | 0.00 | 28 | 1006.2 |
| 20260510150049 | 66 | 118 | 7.0 | 17.0 | 0.00 | 0.00 | 0.00 | 28 | 1006.1 |
| 20260510144545 | 65 | 133 | 8.0 | 16.0 | 0.00 | 0.00 | 0.00 | 31 | 1006.3 |
| 20260510143033 | 64 | 116 | 9.0 | 16.0 | 0.00 | 0.00 | 0.00 | 31 | 1006.3 |
| 20260510141529 | 63 | 105 | 5.0 | 14.0 | 0.00 | 0.00 | 0.00 | 33 | 1006.0 |
| 20260510140026 | 60 | 103 | 8.0 | 15.0 | 0.00 | 0.00 | 0.00 | 35 | 1005.8 |
| 20260510134523 | 58 | 88 | 5.0 | 11.0 | 0.00 | 0.00 | 0.00 | 36 | 1005.7 |
| 20260510133024 | 57 | 94 | 4.0 | 9.0 | 0.00 | 0.00 | 0.00 | 37 | 1005.6 |
| 20260510131517 | 57 | 79 | 4.0 | 9.0 | 0.00 | 0.00 | 0.00 | 37 | 1005.5 |
| 20260510130015 | 57 | 119 | 4.0 | 7.0 | 0.00 | 0.00 | 0.00 | 37 | 1005.3 |
| 20260510124512 | 57 | 65 | 4.0 | 7.0 | 0.00 | 0.00 | 0.00 | 35 | 1005.0 |
| 20260510123009 | 58 | 118 | 5.0 | 10.0 | 0.00 | 0.00 | 0.00 | 34 | 1005.0 |
| 20260510121505 | 59 | 126 | 6.0 | 10.0 | 0.00 | 0.00 | 0.00 | 33 | 1004.8 |
| 20260510120004 | 60 | 103 | 5.0 | 14.0 | 0.00 | 0.00 | 0.00 | 31 | 1004.8 |
| 20260510114508 | 61 | 93 | 9.0 | 16.0 | 0.00 | 0.00 | 0.00 | 29 | 1004.8 |
| 20260510113004 | 62 | 108 | 8.0 | 15.0 | 0.00 | 0.00 | 0.00 | 27 | 1004.6 |
| 20260510111502 | 62 | 155 | 10.0 | 32.0 | 0.00 | 0.00 | 0.00 | 26 | 1004.7 |
| 20260510110001 | 61 | 114 | 4.0 | 13.0 | 0.00 | 0.00 | 0.00 | 27 | 1005.0 |
| 20260510104600 | 59 | 74 | 5.0 | 10.0 | 0.00 | 0.00 | 0.00 | 29 | 1004.9 |
| 20260510103057 | 59 | 89 | 3.0 | 9.0 | 0.00 | 0.00 | 0.00 | 27 | 1004.6 |
| 20260510101604 | 58 | 149 | 4.0 | 7.0 | 0.00 | 0.00 | 0.00 | 26 | 1004.3 |
| 20260510100104 | 58 | 94 | 5.0 | 9.0 | 0.00 | 0.00 | 0.00 | 25 | 1004.4 |
| 20260510094556 | 58 | 120 | 4.0 | 8.0 | 0.00 | 0.00 | 0.00 | 25 | 1003.8 |
| 20260510093054 | 57 | 233 | 3.0 | 5.0 | 0.00 | 0.00 | 0.00 | 26 | 1004.1 |
| 20260510091550 | 57 | 142 | 4.0 | 7.0 | 0.00 | 0.00 | 0.00 | 25 | 1003.6 |
| 20260510090048 | 56 | 152 | 5.0 | 8.0 | 0.00 | 0.00 | 0.00 | 28 | 1003.2 |
| 20260510084558 | 57 | 145 | 1.0 | 5.0 | 0.00 | 0.00 | 0.00 | 28 | 1002.7 |
| 20260510083043 | 56 | 28 | 1.0 | 3.0 | 0.00 | 0.00 | 0.00 | 28 | 1002.5 |
| 20260510081542 | 59 | 46 | 1.0 | 6.0 | 0.00 | 0.00 | 0.00 | 25 | 1002.6 |
| 20260510080057 | 60 | 314 | 2.0 | 3.0 | 0.00 | 0.00 | 0.00 | 25 | 1002.8 |
| 20260510074540 | 61 | 98 | 1.0 | 6.0 | 0.00 | 0.00 | 0.00 | 24 | 1002.7 |
| 20260510073044 | 60 | 35 | 2.0 | 5.0 | 0.00 | 0.00 | 0.00 | 25 | 1002.7 |
| 20260510071536 | 59 | 8 | 3.0 | 6.0 | 0.00 | 0.00 | 0.00 | 25 | 1002.8 |
| 20260510070043 | 60 | 356 | 4.0 | 7.0 | 0.00 | 0.00 | 0.00 | 24 | 1002.8 |
| 20260510064530 | 60 | 25 | 3.0 | 6.0 | 0.00 | 0.00 | 0.00 | 23 | 1002.7 |
| 20260510063035 | 60 | 34 | 3.0 | 5.0 | 0.00 | 0.00 | 0.00 | 22 | 1002.6 |
| 20260510061526 | 61 | 40 | 1.0 | 4.0 | 0.00 | 0.00 | 0.00 | 21 | 1002.7 |
| 20260510060034 | 64 | 347 | 3.0 | 8.0 | 0.00 | 0.00 | 0.00 | 20 | 1002.5 |
| 20260510054523 | 65 | 336 | 7.0 | 13.0 | 0.00 | 0.00 | 0.00 | 20 | 1002.4 |
| 20260510053021 | 65 | 1 | 5.0 | 10.0 | 0.00 | 0.00 | 0.00 | 19 | 1002.3 |
| 20260510051520 | 66 | 349 | 6.0 | 11.0 | 0.00 | 0.00 | 0.00 | 18 | 1002.2 |
| 20260510050020 | 66 | 348 | 7.0 | 12.0 | 0.00 | 0.00 | 0.00 | 18 | 1002.3 |
| 20260510044524 | 65 | 6 | 5.0 | 10.0 | 0.00 | 0.00 | 0.00 | 17 | 1002.3 |
| 20260510043019 | 65 | 20 | 5.0 | 8.0 | 0.00 | 0.00 | 0.00 | 16 | 1002.3 |
| 20260510041522 | 65 | 9 | 4.0 | 6.0 | 0.00 | 0.00 | 0.00 | 16 | 1002.2 |
| 20260510040018 | 66 | 23 | 3.0 | 7.0 | 0.00 | 0.00 | 0.00 | 15 | 1002.1 |
| 20260510034517 | 66 | 13 | 3.0 | 6.0 | 0.00 | 0.00 | 0.00 | 15 | 1001.9 |
| 20260510033017 | 67 | 9 | 2.0 | 4.0 | 0.00 | 0.00 | 0.00 | 15 | 1001.7 |
| 20260510031523 | 68 | 20 | 1.0 | 3.0 | 0.00 | 0.00 | 0.00 | 14 | 1001.4 |
| 20260510030118 | 68 | 303 | 1.0 | 4.0 | 0.00 | 0.00 | 0.00 | 13 | 1001.2 |
| 20260510024516 | 70 | 308 | 2.0 | 6.0 | 0.00 | 0.00 | 0.00 | 13 | 1000.9 |
| 20260510023017 | 71 | 307 | 4.0 | 8.0 | 0.00 | 0.00 | 0.00 | 12 | 1000.7 |
| 20260510021534 | 72 | 319 | 4.0 | 13.0 | 0.00 | 0.00 | 0.00 | 11 | 1000.5 |
| 20260510020013 | 73 | 352 | 7.0 | 16.0 | 0.00 | 0.00 | 0.00 | 11 | 1000.4 |
| 20260510014529 | 74 | 305 | 7.0 | 13.0 | 0.00 | 0.00 | 0.00 | 11 | 1000.2 |
| 20260510013012 | 75 | 284 | 6.0 | 16.0 | 0.00 | 0.00 | 0.00 | 10 | 1000.1 |
| 20260510011515 | 75 | 284 | 9.0 | 17.0 | 0.00 | 0.00 | 0.00 | 10 | 999.9 |
| 20260510010021 | 75 | 283 | 6.0 | 14.0 | 0.00 | 0.00 | 0.00 | 10 | 999.8 |
| 20260510004511 | 76 | 304 | 8.0 | 18.0 | 0.00 | 0.00 | 0.00 | 9 | 999.8 |
| 20260510003010 | 77 | 312 | 9.0 | 17.0 | 0.00 | 0.00 | 0.00 | 9 | 999.7 |
| 20260510001510 | 77 | 250 | 7.0 | 23.0 | 0.00 | 0.00 | 0.00 | 9 | 999.7 |
| 20260510000108 | 79 | 250 | 9.0 | 22.0 | 0.00 | 0.00 | 0.00 | 8 | 999.5 |
| 20260509234510 | 80 | 305 | 7.0 | 20.0 | 0.00 | 0.00 | 0.00 | 8 | 999.6 |
| 20260509233007 | 80 | 293 | 12.0 | 26.0 | 0.00 | 0.00 | 0.00 | 8 | 999.5 |
| 20260509231505 | 81 | 283 | 11.0 | 21.0 | 0.00 | 0.00 | 0.00 | 8 | 999.7 |
| 20260509230010 | 81 | 322 | 6.0 | 20.0 | 0.00 | 0.00 | 0.00 | 8 | 999.6 |
| 20260509224503 | 82 | 317 | 13.0 | 27.0 | 0.00 | 0.00 | 0.00 | 8 | 999.7 |
| 20260509223002 | 80 | 297 | 6.0 | 16.0 | 0.00 | 0.00 | 0.00 | 9 | 999.7 |
| 20260509221600 | 84 | 310 | 10.0 | 23.0 | 0.00 | 0.00 | 0.00 | 8 | 999.8 |
| 20260509220059 | 81 | 238 | 10.0 | 19.0 | 0.00 | 0.00 | 0.00 | 9 | 999.9 |
| 20260509214556 | 79 | 250 | 11.0 | 18.0 | 0.00 | 0.00 | 0.00 | 10 | 1000.3 |
| 20260509213108 | 81 | 327 | 6.0 | 20.0 | 0.00 | 0.00 | 0.00 | 9 | 1000.5 |
| 20260509211602 | 80 | 252 | 8.0 | 19.0 | 0.00 | 0.00 | 0.00 | 10 | 1000.6 |
| 20260509210053 | 82 | 283 | 10.0 | 21.0 | 0.00 | 0.00 | 0.00 | 8 | 1000.9 |
| 20260509204549 | 84 | 281 | 8.0 | 22.0 | 0.00 | 0.00 | 0.00 | 8 | 1000.9 |